PTFLR SBCF-SBFL

Flight info

Callsign PTFLR
Flight time 1h 37m
Altitude 28000
Route CNF SCP JNV FLN
Aircraft F28/M-SDF/C

Departure

Time 2026-04-27 04:17
Airport Tancredo Neves International Airport (SBCF)

Arrival

Time 2026-04-27 05:55
Airport Hercílio Luz International Airport (SBFL)
Time Latitude Longitude Altitude Speed Heading
2026-04-27 03:48 -19.62922 -43.96952 2808 ft 0 kts 229°
2026-04-27 04:06 -19.62921 -43.96951 2807 ft 1 kts 229°
2026-04-27 04:06 -19.62917 -43.96947 2808 ft 1 kts 229°
2026-04-27 04:06 -19.62912 -43.96941 2815 ft 1 kts 229°
2026-04-27 04:07 -19.62902 -43.96929 2817 ft 1 kts 229°
2026-04-27 04:07 -19.62897 -43.96923 2789 ft 1 kts 229°
2026-04-27 04:07 -19.62894 -43.96917 2789 ft 1 kts 271°
2026-04-27 04:07 -19.62896 -43.96909 2788 ft 1 kts 292°
2026-04-27 04:08 -19.62899 -43.96900 2791 ft 1 kts 292°
2026-04-27 04:08 -19.62903 -43.96891 2789 ft 1 kts 307°
2026-04-27 04:08 -19.62904 -43.96890 2789 ft 0 kts 307°
2026-04-27 04:11 -19.62901 -43.96895 2787 ft 2 kts 307°
2026-04-27 04:11 -19.62890 -43.96909 2790 ft 3 kts 308°
2026-04-27 04:12 -19.62871 -43.96931 2789 ft 5 kts 320°
2026-04-27 04:12 -19.62839 -43.96957 2789 ft 7 kts 322°
2026-04-27 04:12 -19.62800 -43.96990 2789 ft 7 kts 316°
2026-04-27 04:12 -19.62787 -43.97034 2789 ft 7 kts 256°
2026-04-27 04:13 -19.62813 -43.97073 2789 ft 6 kts 227°
2026-04-27 04:13 -19.62841 -43.97109 2789 ft 8 kts 250°
2026-04-27 04:13 -19.62814 -43.97167 2789 ft 11 kts 321°
2026-04-27 04:13 -19.62743 -43.97230 2789 ft 15 kts 319°
2026-04-27 04:14 -19.62655 -43.97312 2789 ft 19 kts 319°
2026-04-27 04:14 -19.62550 -43.97409 2789 ft 20 kts 319°
2026-04-27 04:14 -19.62449 -43.97504 2789 ft 18 kts 319°
2026-04-27 04:14 -19.62361 -43.97586 2789 ft 16 kts 319°
2026-04-27 04:15 -19.62294 -43.97646 2789 ft 9 kts 314°
2026-04-27 04:15 -19.62286 -43.97697 2789 ft 6 kts 244°
2026-04-27 04:15 -19.62311 -43.97732 2790 ft 6 kts 230°
2026-04-27 04:15 -19.62338 -43.97767 2788 ft 7 kts 230°
2026-04-27 04:16 -19.62373 -43.97794 2791 ft 5 kts 174°
2026-04-27 04:16 -19.62399 -43.97774 2787 ft 5 kts 136°
2026-04-27 04:16 -19.62505 -43.97675 2788 ft 47 kts 139°
2026-04-27 04:16 -19.62932 -43.97279 2789 ft 117 kts 139°
2026-04-27 04:17 -19.63708 -43.96564 2876 ft 171 kts 139°
2026-04-27 04:17 -19.64672 -43.95630 3405 ft 201 kts 136°
2026-04-27 04:17 -19.65768 -43.94568 3997 ft 222 kts 137°
2026-04-27 04:17 -19.66943 -43.93440 4712 ft 233 kts 138°
2026-04-27 04:18 -19.68338 -43.92558 5451 ft 238 kts 165°
2026-04-27 04:18 -19.69998 -43.92587 6086 ft 245 kts 197°
2026-04-27 04:18 -19.71435 -43.93554 6609 ft 251 kts 228°
2026-04-27 04:18 -19.72489 -43.95048 7073 ft 254 kts 236°
2026-04-27 04:19 -19.73445 -43.96610 7479 ft 257 kts 238°
2026-04-27 04:19 -19.74388 -43.98233 7846 ft 260 kts 238°
2026-04-27 04:19 -19.75327 -43.99891 8133 ft 264 kts 239°
2026-04-27 04:19 -19.76279 -44.01592 8397 ft 272 kts 239°
2026-04-27 04:20 -19.77255 -44.03346 8675 ft 280 kts 239°
2026-04-27 04:20 -19.78268 -44.05156 8977 ft 290 kts 239°
2026-04-27 04:20 -19.79307 -44.07012 9551 ft 291 kts 239°
2026-04-27 04:20 -19.80346 -44.08870 10063 ft 294 kts 239°
2026-04-27 04:21 -19.81395 -44.10746 10588 ft 296 kts 239°
2026-04-27 04:21 -19.82450 -44.12632 11155 ft 298 kts 239°
2026-04-27 04:21 -19.83511 -44.14525 11722 ft 299 kts 239°
2026-04-27 04:21 -19.84584 -44.16436 12265 ft 302 kts 239°
2026-04-27 04:22 -19.85650 -44.18327 12858 ft 302 kts 238°
2026-04-27 04:22 -19.87055 -44.19974 13442 ft 304 kts 214°
2026-04-27 04:22 -19.88955 -44.20956 13991 ft 306 kts 202°
2026-04-27 04:22 -19.90957 -44.21752 14443 ft 309 kts 200°
2026-04-27 04:23 -19.92996 -44.22516 14906 ft 312 kts 200°
2026-04-27 04:23 -19.95014 -44.23393 15346 ft 315 kts 205°
2026-04-27 04:23 -19.97030 -44.24333 15818 ft 317 kts 205°
2026-04-27 04:23 -19.99054 -44.25291 16283 ft 320 kts 206°
2026-04-27 04:24 -20.01093 -44.26262 16736 ft 322 kts 206°
2026-04-27 04:24 -20.03150 -44.27240 17189 ft 325 kts 206°
2026-04-27 04:24 -20.05223 -44.28225 17638 ft 328 kts 206°
2026-04-27 04:24 -20.07316 -44.29219 18077 ft 330 kts 206°
2026-04-27 04:25 -20.09425 -44.30219 18489 ft 333 kts 206°
2026-04-27 04:25 -20.11547 -44.31230 18876 ft 335 kts 206°
2026-04-27 04:25 -20.13685 -44.32246 19256 ft 337 kts 206°
2026-04-27 04:25 -20.15828 -44.33264 19624 ft 338 kts 206°
2026-04-27 04:26 -20.17957 -44.34274 20004 ft 340 kts 207°
2026-04-27 04:26 -20.20127 -44.35307 20369 ft 342 kts 206°
2026-04-27 04:26 -20.22308 -44.36345 20730 ft 344 kts 206°
2026-04-27 04:26 -20.24499 -44.37388 21101 ft 346 kts 206°
2026-04-27 04:27 -20.26708 -44.38439 21453 ft 348 kts 206°
2026-04-27 04:27 -20.28924 -44.39494 21814 ft 350 kts 206°
2026-04-27 04:27 -20.31123 -44.40540 22159 ft 352 kts 206°
2026-04-27 04:27 -20.33366 -44.41609 22507 ft 353 kts 206°
2026-04-27 04:28 -20.35620 -44.42682 22862 ft 355 kts 206°
2026-04-27 04:28 -20.37882 -44.43760 23240 ft 356 kts 207°
2026-04-27 04:28 -20.39378 -44.44472 23479 ft 357 kts 207°
2026-04-27 04:28 -20.41653 -44.45557 23780 ft 359 kts 206°
2026-04-27 04:29 -20.43923 -44.46678 24039 ft 359 kts 210°
2026-04-27 04:29 -20.46127 -44.47946 24316 ft 361 kts 212°
2026-04-27 04:29 -20.48325 -44.49247 24585 ft 362 kts 212°
2026-04-27 04:29 -20.50532 -44.50558 24840 ft 364 kts 212°
2026-04-27 04:30 -20.52749 -44.51876 25107 ft 366 kts 212°
2026-04-27 04:30 -20.54994 -44.53174 25362 ft 368 kts 208°
2026-04-27 04:30 -20.57323 -44.54329 25598 ft 370 kts 207°
2026-04-27 04:30 -20.59667 -44.55482 25903 ft 370 kts 208°
2026-04-27 04:31 -20.61986 -44.56614 26155 ft 372 kts 208°
2026-04-27 04:31 -20.64347 -44.57762 26390 ft 374 kts 208°
2026-04-27 04:31 -20.66752 -44.58933 26630 ft 375 kts 208°
2026-04-27 04:31 -20.69101 -44.60076 26852 ft 376 kts 208°
2026-04-27 04:32 -20.71497 -44.61243 27079 ft 378 kts 208°
2026-04-27 04:32 -20.73893 -44.62411 27294 ft 380 kts 208°
2026-04-27 04:32 -20.76304 -44.63585 27518 ft 381 kts 208°
2026-04-27 04:32 -20.78721 -44.64762 27745 ft 382 kts 208°
2026-04-27 04:33 -20.81142 -44.65944 27961 ft 384 kts 208°
2026-04-27 04:33 -20.83585 -44.67137 28055 ft 388 kts 208°
2026-04-27 04:33 -20.88588 -44.69579 28063 ft 402 kts 208°
2026-04-27 04:34 -20.93751 -44.72099 28069 ft 414 kts 208°
2026-04-27 04:34 -20.99059 -44.74693 28067 ft 424 kts 208°
2026-04-27 04:35 -21.04497 -44.77352 28068 ft 434 kts 208°
2026-04-27 04:35 -21.10001 -44.80046 28064 ft 442 kts 208°
2026-04-27 04:36 -21.15642 -44.82808 28062 ft 448 kts 208°
2026-04-27 04:36 -21.21338 -44.85598 28063 ft 451 kts 208°
2026-04-27 04:37 -21.27063 -44.88409 28054 ft 453 kts 208°
2026-04-27 04:37 -21.32802 -44.91225 28051 ft 453 kts 208°
2026-04-27 04:38 -21.38518 -44.94033 28045 ft 450 kts 208°
2026-04-27 04:38 -21.44192 -44.96823 28052 ft 447 kts 208°
2026-04-27 04:39 -21.49796 -44.99579 28044 ft 445 kts 208°
2026-04-27 04:39 -21.55411 -45.02344 28046 ft 443 kts 208°
2026-04-27 04:40 -21.60996 -45.05093 28046 ft 440 kts 208°
2026-04-27 04:40 -21.66556 -45.07837 28053 ft 439 kts 209°
2026-04-27 04:41 -21.72102 -45.10573 28047 ft 438 kts 209°
2026-04-27 04:41 -21.77630 -45.13302 28048 ft 437 kts 209°
2026-04-27 04:42 -21.83147 -45.16028 28047 ft 436 kts 209°
2026-04-27 04:42 -21.88651 -45.18750 28050 ft 435 kts 209°
2026-04-27 04:43 -21.94146 -45.21469 28056 ft 434 kts 210°
2026-04-27 04:43 -21.99609 -45.24175 28060 ft 434 kts 209°
2026-04-27 04:44 -22.05091 -45.26891 28060 ft 433 kts 210°
2026-04-27 04:44 -22.10567 -45.29606 28051 ft 432 kts 210°
2026-04-27 04:45 -22.16026 -45.32317 28051 ft 432 kts 210°
2026-04-27 04:45 -22.21456 -45.35016 28065 ft 431 kts 210°
2026-04-27 04:46 -22.26907 -45.37723 28045 ft 430 kts 210°
2026-04-27 04:46 -22.32342 -45.40427 28052 ft 429 kts 210°
2026-04-27 04:47 -22.37769 -45.43129 28063 ft 429 kts 210°
2026-04-27 04:47 -22.43163 -45.45817 28059 ft 429 kts 210°
2026-04-27 04:48 -22.48589 -45.48521 28066 ft 429 kts 210°
2026-04-27 04:48 -22.54019 -45.51233 28052 ft 429 kts 210°
2026-04-27 04:49 -22.59440 -45.53940 28058 ft 429 kts 210°
2026-04-27 04:49 -22.64840 -45.56637 28031 ft 429 kts 210°
2026-04-27 04:50 -22.70254 -45.59345 28048 ft 428 kts 210°
2026-04-27 04:50 -22.75665 -45.62054 28034 ft 428 kts 211°
2026-04-27 04:51 -22.81063 -45.64763 27998 ft 426 kts 211°
2026-04-27 04:51 -22.86453 -45.67461 28026 ft 426 kts 211°
2026-04-27 04:52 -22.91832 -45.70160 28027 ft 426 kts 211°
2026-04-27 04:52 -22.97174 -45.72843 28027 ft 426 kts 211°
2026-04-27 04:53 -22.99858 -45.74191 27990 ft 425 kts 211°
2026-04-27 04:53 -23.02559 -45.75548 27995 ft 425 kts 211°
2026-04-27 04:53 -23.07930 -45.78249 28010 ft 425 kts 211°
2026-04-27 04:54 -23.10608 -45.79599 28000 ft 425 kts 211°
2026-04-27 04:54 -23.13288 -45.80947 27994 ft 424 kts 211°
2026-04-27 04:54 -23.15947 -45.82285 27994 ft 424 kts 211°
2026-04-27 04:54 -23.18624 -45.83636 28000 ft 424 kts 211°
2026-04-27 04:55 -23.23986 -45.86323 28050 ft 424 kts 211°
2026-04-27 04:55 -23.29326 -45.88968 28049 ft 424 kts 211°
2026-04-27 04:56 -23.34703 -45.91628 28061 ft 424 kts 211°
2026-04-27 04:56 -23.40081 -45.94288 27980 ft 424 kts 211°
2026-04-27 04:57 -23.42761 -45.95619 27981 ft 424 kts 211°
2026-04-27 04:57 -23.45447 -45.96950 27974 ft 424 kts 211°
2026-04-27 04:57 -23.48133 -45.98283 27983 ft 424 kts 211°
2026-04-27 04:57 -23.50783 -45.99596 27970 ft 423 kts 211°
2026-04-27 04:58 -23.53469 -46.00929 27952 ft 423 kts 211°
2026-04-27 04:58 -23.56153 -46.02261 27954 ft 423 kts 211°
2026-04-27 04:58 -23.58843 -46.03568 27955 ft 424 kts 209°
2026-04-27 04:58 -23.61593 -46.04761 27960 ft 426 kts 208°
2026-04-27 04:59 -23.64366 -46.05903 27940 ft 426 kts 207°
2026-04-27 04:59 -23.67145 -46.07027 27939 ft 426 kts 207°
2026-04-27 04:59 -23.69896 -46.08128 27942 ft 426 kts 207°
2026-04-27 04:59 -23.72678 -46.09234 27934 ft 426 kts 207°
2026-04-27 05:00 -23.75463 -46.10341 27902 ft 425 kts 207°
2026-04-27 05:00 -23.78243 -46.11445 27912 ft 425 kts 207°
2026-04-27 05:00 -23.81026 -46.12550 27916 ft 425 kts 207°
2026-04-27 05:00 -23.83732 -46.13798 27915 ft 415 kts 218°
2026-04-27 05:01 -23.85894 -46.15772 27925 ft 399 kts 236°
2026-04-27 05:01 -23.87474 -46.18233 27919 ft 393 kts 243°
2026-04-27 05:01 -23.88888 -46.20777 27925 ft 392 kts 245°
2026-04-27 05:01 -23.90261 -46.23352 27926 ft 391 kts 245°
2026-04-27 05:02 -23.91607 -46.25936 27918 ft 391 kts 246°
2026-04-27 05:02 -23.92942 -46.28530 27911 ft 391 kts 246°
2026-04-27 05:02 -23.95593 -46.33718 27906 ft 391 kts 246°
2026-04-27 05:03 -23.96902 -46.36282 27906 ft 391 kts 246°
2026-04-27 05:03 -23.98230 -46.38878 27911 ft 391 kts 246°
2026-04-27 05:03 -23.99556 -46.41472 27915 ft 391 kts 246°
2026-04-27 05:03 -24.00884 -46.44079 27911 ft 391 kts 246°
2026-04-27 05:04 -24.02205 -46.46677 27908 ft 390 kts 246°
2026-04-27 05:04 -24.03524 -46.49271 27911 ft 390 kts 246°
2026-04-27 05:04 -24.04847 -46.51862 27908 ft 391 kts 245°
2026-04-27 05:04 -24.06508 -46.54252 27911 ft 397 kts 236°
2026-04-27 05:05 -24.08297 -46.56558 27911 ft 397 kts 236°
2026-04-27 05:05 -24.10121 -46.58836 27917 ft 398 kts 234°
2026-04-27 05:05 -24.11993 -46.61077 27905 ft 399 kts 233°
2026-04-27 05:05 -24.13893 -46.63302 27904 ft 399 kts 233°
2026-04-27 05:06 -24.15774 -46.65485 27908 ft 399 kts 233°
2026-04-27 05:06 -24.17687 -46.67694 27907 ft 399 kts 233°
2026-04-27 05:06 -24.19599 -46.69897 27906 ft 399 kts 233°
2026-04-27 05:06 -24.21567 -46.72050 27906 ft 401 kts 230°
2026-04-27 05:07 -24.23600 -46.74142 27905 ft 401 kts 230°
2026-04-27 05:07 -24.25639 -46.76233 27905 ft 401 kts 230°
2026-04-27 05:07 -24.27680 -46.78321 27900 ft 401 kts 230°
2026-04-27 05:07 -24.29721 -46.80404 27900 ft 401 kts 230°
2026-04-27 05:08 -24.31760 -46.82486 27901 ft 401 kts 230°
2026-04-27 05:08 -24.33800 -46.84569 27920 ft 401 kts 230°
2026-04-27 05:08 -24.35842 -46.86653 27910 ft 401 kts 230°
2026-04-27 05:08 -24.37884 -46.88736 27906 ft 401 kts 230°
2026-04-27 05:09 -24.39923 -46.90824 27907 ft 401 kts 230°
2026-04-27 05:09 -24.41965 -46.92907 27896 ft 400 kts 230°
2026-04-27 05:09 -24.44002 -46.94993 27897 ft 400 kts 230°
2026-04-27 05:09 -24.46040 -46.97078 27902 ft 400 kts 230°
2026-04-27 05:10 -24.48081 -46.99164 27905 ft 400 kts 230°
2026-04-27 05:10 -24.50120 -47.01247 27903 ft 400 kts 230°
2026-04-27 05:10 -24.52132 -47.03310 27901 ft 400 kts 230°
2026-04-27 05:10 -24.54168 -47.05396 27901 ft 400 kts 230°
2026-04-27 05:11 -24.56202 -47.07478 27903 ft 399 kts 230°
2026-04-27 05:11 -24.58234 -47.09558 27901 ft 399 kts 230°
2026-04-27 05:11 -24.60268 -47.11643 27901 ft 399 kts 230°
2026-04-27 05:11 -24.62299 -47.13722 27901 ft 399 kts 230°
2026-04-27 05:12 -24.64330 -47.15806 27907 ft 399 kts 230°
2026-04-27 05:12 -24.66358 -47.17887 27907 ft 399 kts 230°
2026-04-27 05:12 -24.68412 -47.19942 27908 ft 402 kts 226°
2026-04-27 05:12 -24.70678 -47.21777 27913 ft 407 kts 223°
2026-04-27 05:13 -24.73110 -47.23408 27905 ft 416 kts 213°
2026-04-27 05:13 -24.75928 -47.24384 27911 ft 429 kts 202°
2026-04-27 05:13 -24.78755 -47.25235 27908 ft 421 kts 209°
2026-04-27 05:13 -24.81424 -47.26503 27911 ft 416 kts 213°
2026-04-27 05:14 -24.84041 -47.27857 27910 ft 415 kts 214°
2026-04-27 05:14 -24.86648 -47.29231 27907 ft 415 kts 214°
2026-04-27 05:14 -24.89252 -47.30612 27910 ft 415 kts 214°
2026-04-27 05:14 -24.91860 -47.31998 27910 ft 415 kts 214°
2026-04-27 05:15 -24.94468 -47.33369 27906 ft 417 kts 212°
2026-04-27 05:15 -24.97182 -47.34573 27906 ft 419 kts 210°
2026-04-27 05:15 -24.99895 -47.35776 27917 ft 420 kts 210°
2026-04-27 05:15 -25.02583 -47.36939 27912 ft 419 kts 210°
2026-04-27 05:16 -25.05292 -47.38114 27912 ft 417 kts 210°
2026-04-27 05:16 -25.07983 -47.39282 27914 ft 414 kts 210°
2026-04-27 05:16 -25.10651 -47.40439 27911 ft 411 kts 210°
2026-04-27 05:16 -25.13308 -47.41592 27907 ft 407 kts 210°
2026-04-27 05:17 -25.15940 -47.42734 27910 ft 405 kts 210°
2026-04-27 05:17 -25.18560 -47.43872 27909 ft 403 kts 210°
2026-04-27 05:17 -25.21172 -47.45007 27909 ft 401 kts 210°
2026-04-27 05:17 -25.22886 -47.45753 27909 ft 399 kts 210°
2026-04-27 05:18 -25.25461 -47.46872 27916 ft 397 kts 210°
2026-04-27 05:18 -25.28028 -47.47991 27910 ft 395 kts 210°
2026-04-27 05:18 -25.30585 -47.49103 27908 ft 394 kts 210°
2026-04-27 05:18 -25.33137 -47.50213 27908 ft 393 kts 210°
2026-04-27 05:19 -25.35680 -47.51321 27910 ft 393 kts 210°
2026-04-27 05:19 -25.38229 -47.52432 27909 ft 393 kts 210°
2026-04-27 05:19 -25.40758 -47.53534 27910 ft 395 kts 210°
2026-04-27 05:19 -25.43320 -47.54651 27912 ft 397 kts 210°
2026-04-27 05:20 -25.45899 -47.55776 27914 ft 399 kts 210°
2026-04-27 05:20 -25.48488 -47.56904 27913 ft 401 kts 210°
2026-04-27 05:20 -25.51090 -47.58039 27914 ft 402 kts 210°
2026-04-27 05:20 -25.53696 -47.59183 27927 ft 404 kts 209°
2026-04-27 05:21 -25.56323 -47.60326 27923 ft 405 kts 209°
2026-04-27 05:21 -25.58947 -47.61473 27918 ft 406 kts 209°
2026-04-27 05:21 -25.61544 -47.62609 27916 ft 406 kts 209°
2026-04-27 05:21 -25.64165 -47.63754 27914 ft 404 kts 209°
2026-04-27 05:22 -25.66769 -47.64896 27912 ft 401 kts 209°
2026-04-27 05:22 -25.69367 -47.66032 27909 ft 400 kts 209°
2026-04-27 05:22 -25.71953 -47.67167 27906 ft 399 kts 209°
2026-04-27 05:22 -25.74521 -47.68325 27906 ft 397 kts 210°
2026-04-27 05:23 -25.77106 -47.69429 27904 ft 398 kts 208°
2026-04-27 05:23 -25.79675 -47.70550 27835 ft 398 kts 210°
2026-04-27 05:23 -25.82271 -47.71685 27563 ft 400 kts 210°
2026-04-27 05:23 -25.84854 -47.72821 27248 ft 399 kts 210°
2026-04-27 05:24 -25.87438 -47.73958 26867 ft 399 kts 210°
2026-04-27 05:24 -25.89992 -47.75080 26501 ft 399 kts 210°
2026-04-27 05:24 -25.92573 -47.76216 26140 ft 399 kts 210°
2026-04-27 05:24 -25.95148 -47.77347 25789 ft 398 kts 210°
2026-04-27 05:25 -25.97726 -47.78481 25437 ft 397 kts 210°
2026-04-27 05:25 -26.00293 -47.79612 25102 ft 396 kts 210°
2026-04-27 05:25 -26.02852 -47.80737 24784 ft 395 kts 210°
2026-04-27 05:25 -26.05402 -47.81862 24460 ft 394 kts 210°
2026-04-27 05:26 -26.07941 -47.82985 24156 ft 392 kts 209°
2026-04-27 05:26 -26.10476 -47.84098 23843 ft 391 kts 209°
2026-04-27 05:26 -26.13003 -47.85210 23534 ft 390 kts 209°
2026-04-27 05:26 -26.15520 -47.86323 23172 ft 388 kts 209°
2026-04-27 05:27 -26.18018 -47.87424 22806 ft 383 kts 209°
2026-04-27 05:27 -26.20489 -47.88516 22443 ft 380 kts 209°
2026-04-27 05:27 -26.22909 -47.89586 22091 ft 377 kts 209°
2026-04-27 05:27 -26.25339 -47.90659 21742 ft 374 kts 209°
2026-04-27 05:28 -26.27745 -47.91724 21396 ft 370 kts 209°
2026-04-27 05:28 -26.30135 -47.92781 21054 ft 367 kts 209°
2026-04-27 05:28 -26.32504 -47.93829 20711 ft 365 kts 209°
2026-04-27 05:28 -26.34855 -47.94872 20393 ft 362 kts 209°
2026-04-27 05:29 -26.37194 -47.95906 20069 ft 360 kts 208°
2026-04-27 05:29 -26.39518 -47.96935 19750 ft 358 kts 209°
2026-04-27 05:29 -26.41803 -47.97946 19439 ft 356 kts 209°
2026-04-27 05:29 -26.44109 -47.98969 19108 ft 355 kts 209°
2026-04-27 05:30 -26.46400 -47.99986 18779 ft 354 kts 209°
2026-04-27 05:30 -26.48686 -48.00999 18460 ft 352 kts 209°
2026-04-27 05:30 -26.50952 -48.02008 18142 ft 349 kts 208°
2026-04-27 05:30 -26.53201 -48.03004 17772 ft 345 kts 208°
2026-04-27 05:31 -26.55421 -48.03990 17410 ft 342 kts 208°
2026-04-27 05:31 -26.57625 -48.04970 17062 ft 339 kts 208°
2026-04-27 05:31 -26.59784 -48.05930 16721 ft 338 kts 208°
2026-04-27 05:31 -26.61962 -48.06898 16383 ft 336 kts 208°
2026-04-27 05:32 -26.64154 -48.07874 16050 ft 333 kts 208°
2026-04-27 05:32 -26.66277 -48.08818 15720 ft 331 kts 208°
2026-04-27 05:32 -26.68408 -48.09767 15400 ft 329 kts 208°
2026-04-27 05:32 -26.70530 -48.10711 15089 ft 327 kts 208°
2026-04-27 05:33 -26.72637 -48.11651 14778 ft 324 kts 208°
2026-04-27 05:33 -26.74729 -48.12581 14475 ft 321 kts 208°
2026-04-27 05:33 -26.76792 -48.13503 14180 ft 318 kts 208°
2026-04-27 05:33 -26.78849 -48.14420 13878 ft 315 kts 208°
2026-04-27 05:34 -26.80874 -48.15323 13569 ft 312 kts 208°
2026-04-27 05:34 -26.82856 -48.16207 13235 ft 306 kts 208°
2026-04-27 05:34 -26.84821 -48.17086 12899 ft 300 kts 208°
2026-04-27 05:34 -26.86750 -48.17947 12557 ft 296 kts 208°
2026-04-27 05:35 -26.88655 -48.18802 12227 ft 293 kts 207°
2026-04-27 05:35 -26.90544 -48.19643 11889 ft 291 kts 207°
2026-04-27 05:35 -26.92396 -48.20470 11565 ft 289 kts 207°
2026-04-27 05:35 -26.94265 -48.21306 11240 ft 288 kts 206°
2026-04-27 05:36 -26.96124 -48.22138 10919 ft 287 kts 206°
2026-04-27 05:36 -26.97976 -48.22969 10606 ft 286 kts 206°
2026-04-27 05:36 -26.99828 -48.23796 10296 ft 286 kts 205°
2026-04-27 05:36 -27.01680 -48.24624 9989 ft 286 kts 205°
2026-04-27 05:37 -27.03529 -48.25453 9667 ft 286 kts 205°
2026-04-27 05:37 -27.05379 -48.26280 9348 ft 286 kts 205°
2026-04-27 05:37 -27.07224 -48.27108 9019 ft 286 kts 205°
2026-04-27 05:37 -27.09066 -48.27934 8706 ft 285 kts 205°
2026-04-27 05:38 -27.10908 -48.28759 8389 ft 285 kts 205°
2026-04-27 05:38 -27.12747 -48.29586 8077 ft 285 kts 205°
2026-04-27 05:38 -27.14564 -48.30401 7788 ft 284 kts 204°
2026-04-27 05:38 -27.16401 -48.31225 7501 ft 284 kts 205°
2026-04-27 05:39 -27.18231 -48.32047 7204 ft 283 kts 204°
2026-04-27 05:39 -27.20061 -48.32869 6920 ft 283 kts 204°
2026-04-27 05:39 -27.21887 -48.33690 6640 ft 282 kts 204°
2026-04-27 05:39 -27.23709 -48.34510 6366 ft 282 kts 204°
2026-04-27 05:40 -27.25525 -48.35325 6087 ft 281 kts 204°
2026-04-27 05:40 -27.27347 -48.36121 5801 ft 280 kts 203°
2026-04-27 05:40 -27.29163 -48.36904 5535 ft 279 kts 203°
2026-04-27 05:40 -27.30979 -48.37683 5262 ft 279 kts 203°
2026-04-27 05:41 -27.32755 -48.38445 4987 ft 268 kts 203°
2026-04-27 05:41 -27.34466 -48.39180 4699 ft 259 kts 203°
2026-04-27 05:41 -27.36124 -48.39894 4395 ft 252 kts 203°
2026-04-27 05:41 -27.37738 -48.40593 4123 ft 244 kts 203°
2026-04-27 05:42 -27.39284 -48.41265 4001 ft 231 kts 203°
2026-04-27 05:42 -27.40713 -48.41887 3979 ft 215 kts 203°
2026-04-27 05:42 -27.42092 -48.42491 3988 ft 211 kts 202°
2026-04-27 05:42 -27.43447 -48.43102 3984 ft 208 kts 203°
2026-04-27 05:43 -27.44751 -48.43692 3977 ft 196 kts 203°
2026-04-27 05:43 -27.45998 -48.44225 3964 ft 190 kts 194°
2026-04-27 05:43 -27.47291 -48.44047 3988 ft 193 kts 153°
2026-04-27 05:43 -27.48327 -48.43088 4023 ft 194 kts 138°
2026-04-27 05:44 -27.49294 -48.42029 4011 ft 194 kts 139°
2026-04-27 05:44 -27.50270 -48.40977 4003 ft 194 kts 139°
2026-04-27 05:44 -27.51241 -48.39932 3998 ft 193 kts 139°
2026-04-27 05:44 -27.52218 -48.38895 3995 ft 192 kts 140°
2026-04-27 05:45 -27.53212 -48.37889 3993 ft 191 kts 141°
2026-04-27 05:45 -27.54212 -48.36898 3996 ft 191 kts 141°
2026-04-27 05:45 -27.55226 -48.35940 3995 ft 189 kts 146°
2026-04-27 05:45 -27.56281 -48.35081 3998 ft 190 kts 148°
2026-04-27 05:46 -27.57370 -48.34235 4002 ft 190 kts 149°
2026-04-27 05:46 -27.58521 -48.33508 4005 ft 190 kts 157°
2026-04-27 05:46 -27.59726 -48.32882 4007 ft 190 kts 159°
2026-04-27 05:46 -27.60944 -48.32287 4005 ft 191 kts 160°
2026-04-27 05:47 -27.62193 -48.31792 4003 ft 190 kts 167°
2026-04-27 05:47 -27.63477 -48.31424 3995 ft 191 kts 169°
2026-04-27 05:47 -27.64793 -48.31095 3874 ft 197 kts 172°
2026-04-27 05:47 -27.66177 -48.30944 3730 ft 203 kts 179°
2026-04-27 05:48 -27.67617 -48.30901 3556 ft 209 kts 183°
2026-04-27 05:48 -27.69055 -48.31002 3402 ft 204 kts 187°
2026-04-27 05:48 -27.70431 -48.31167 3214 ft 200 kts 188°
2026-04-27 05:48 -27.71783 -48.31441 3010 ft 196 kts 198°
2026-04-27 05:49 -27.73052 -48.31965 2805 ft 193 kts 202°
2026-04-27 05:49 -27.74279 -48.32557 2593 ft 191 kts 205°
2026-04-27 05:49 -27.75326 -48.33457 2368 ft 190 kts 226°
2026-04-27 05:49 -27.76040 -48.34699 2127 ft 192 kts 253°
2026-04-27 05:50 -27.76138 -48.36166 1977 ft 182 kts 271°
2026-04-27 05:50 -27.75716 -48.37486 1797 ft 176 kts 293°
2026-04-27 05:50 -27.75160 -48.38651 1692 ft 159 kts 295°
2026-04-27 05:50 -27.74647 -48.39677 1754 ft 141 kts 294°
2026-04-27 05:51 -27.74171 -48.40651 1788 ft 141 kts 294°
2026-04-27 05:51 -27.73701 -48.41632 1859 ft 142 kts 294°
2026-04-27 05:51 -27.73225 -48.42625 1894 ft 145 kts 293°
2026-04-27 05:51 -27.72743 -48.43627 1906 ft 144 kts 295°
2026-04-27 05:52 -27.72269 -48.44574 1815 ft 138 kts 298°
2026-04-27 05:52 -27.71778 -48.45503 1686 ft 138 kts 299°
2026-04-27 05:52 -27.71274 -48.46443 1509 ft 140 kts 300°
2026-04-27 05:52 -27.70777 -48.47364 1344 ft 134 kts 300°
2026-04-27 05:53 -27.70284 -48.48256 1145 ft 135 kts 300°
2026-04-27 05:53 -27.69815 -48.49145 975 ft 130 kts 299°
2026-04-27 05:53 -27.69354 -48.50010 781 ft 128 kts 301°
2026-04-27 05:53 -27.68881 -48.50859 566 ft 129 kts 301°
2026-04-27 05:54 -27.68416 -48.51718 371 ft 126 kts 301°
2026-04-27 05:54 -27.67967 -48.52539 180 ft 121 kts 301°
2026-04-27 05:54 -27.67532 -48.53341 30 ft 109 kts 300°
2026-04-27 05:54 -27.67201 -48.53957 22 ft 71 kts 301°
2026-04-27 05:55 -27.67050 -48.54237 26 ft 31 kts 301°
2026-04-27 05:55 -27.66985 -48.54355 25 ft 11 kts 302°
2026-04-27 05:55 -27.66947 -48.54425 26 ft 9 kts 300°
2026-04-27 05:55 -27.66933 -48.54463 25 ft 4 kts 277°
2026-04-27 05:56 -27.66940 -48.54498 25 ft 4 kts 236°
2026-04-27 05:56 -27.66964 -48.54515 25 ft 5 kts 208°
2026-04-27 05:56 -27.67003 -48.54540 24 ft 7 kts 210°
2026-04-27 05:56 -27.67044 -48.54567 25 ft 7 kts 211°
2026-04-27 05:57 -27.67083 -48.54594 26 ft 7 kts 212°
2026-04-27 05:57 -27.67121 -48.54621 24 ft 6 kts 208°
2026-04-27 05:57 -27.67159 -48.54625 25 ft 5 kts 164°
2026-04-27 05:57 -27.67190 -48.54604 24 ft 5 kts 140°
2026-04-27 05:58 -27.67210 -48.54593 24 ft 2 kts 184°
2026-04-27 05:58 -27.67225 -48.54598 24 ft 2 kts 204°
2026-04-27 05:58 -27.67239 -48.54607 24 ft 2 kts 210°
2026-04-27 05:58 -27.67249 -48.54614 24 ft 1 kts 212°
2026-04-27 05:59 -27.67250 -48.54615 24 ft 0 kts 212°